Wind_Speed
17 17 18 18 19 19 19 19 19 19 19 19 19 21 22 24 27 17 6 5 8 17 20 13 6 4 4 5 5 4 6 11 16 11 5 1 2 1 6 5 3 4 4 5 7
18 17 18 19 20 20 20 20 20 20 19 18 19 19 21 22 19 12 3 8 9 14 7 4 5 9 5 7 7 10 10 16 8 12 6 5 5 3 4 5 4 6 5 6 3
18 18 18 19 19 20 20 19 19 18 18 17 17 17 19 18 5 2 9 18 17 12 7 3 3 6 14 7 12 10 19 18 16 13 11 15 14 5 7 12 11 8 13 8 7
17 17 18 19 20 21 21 19 18 18 18 15 13 14 16 7 5 3 5 19 20 15 3 2 6 6 10 19 15 14 19 20 15 6 7 12 12 17 15 17 13 15 16 15 14
19 20 21 22 23 22 20 17 18 20 18 13 9 7 5 3 7 4 18 21 14 10 7 4 10 11 16 10 17 22 22 14 21 13 14 7 21 21 22 17 19 20 19 18 18
21 22 22 22 23 21 20 15 17 18 15 9 4 2 2 6 7 12 20 13 11 8 4 4 5 9 9 15 18 11 19 22 16 17 19 18 26 21 22 14 16 17 19 19 18
22 22 22 23 23 21 21 17 18 14 13 8 4 4 2 7 11 18 14 12 8 4 3 7 9 9 3 10 11 15 17 12 15 23 19 11 23 36 22 20 25 23 22 23 22
23 23 23 23 23 20 19 18 17 16 9 6 6 2 6 10 16 19 14 14 8 6 3 7 6 6 7 9 7 11 13 22 24 13 9 17 32 32 24 23 27 25 23 22 24
23 23 23 22 21 19 17 18 14 12 5 5 2 2 7 14 9 16 10 10 15 5 3 3 5 6 6 13 8 13 21 26 22 21 19 18 34 22 11 10 20 19 17 16 17
24 24 24 23 19 18 16 17 9 4 4 2 1 3 4 13 15 23 11 13 7 7 4 3 5 10 13 14 19 17 19 19 18 15 22 28 34 24 18 18 20 19 20 21 22
25 26 26 23 18 12 18 5 5 1 5 4 8 6 15 14 21 8 11 5 4 4 1 2 9 18 18 19 21 11 11 17 16 7 20 26 28 25 22 21 23 21 20 22 22
25 27 26 21 16 5 9 5 6 1 8 8 14 11 18 9 7 10 4 2 4 11 3 4 15 13 13 13 18 18 16 9 8 9 7 13 18 15 16 20 21 20 22 22 23
28 26 24 20 5 3 3 6 5 5 3 8 6 5 6 10 6 12 1 2 6 7 7 9 12 6 15 17 14 18 22 20 11 9 15 14 24 24 22 22 23 23 23 23 23
29 26 22 14 2 5 1 4 8 7 3 4 3 0 8 14 4 12 3 2 3 8 7 10 13 13 11 14 15 17 8 11 16 13 13 3 11 16 16 21 21 21 20 22 23
31 26 18 6 5 2 0 7 4 5 4 9 3 3 14 4 11 1 10 3 10 15 10 14 8 8 11 12 11 16 16 12 9 10 11 17 10 15 10 17 14 15 20 22 21
34 22 10 1 4 2 9 8 4 2 4 4 7 11 17 8 15 7 12 4 4 9 13 19 16 8 6 5 8 10 13 17 14 11 14 17 11 22 16 18 17 18 19 17 16
30 10 2 3 2 8 11 2 2 3 4 4 8 12 16 7 13 12 17 7 2 6 3 7 16 18 15 13 12 8 8 7 11 12 17 8 13 23 4 8 14 8 13 17 17
22 4 2 2 9 10 2 1 4 0 4 6 7 16 4 9 12 12 12 7 4 3 5 5 6 7 12 17 15 11 16 7 13 12 15 12 13 8 11 8 13 11 14 15 16
15 3 2 8 5 9 1 1 2 3 3 7 14 3 3 5 9 8 13 7 2 2 5 5 3 9 4 10 8 11 8 18 5 4 7 11 15 14 19 13 8 10 14 17 17
10 4 4 6 7 4 2 2 3 3 7 6 5 3 7 13 10 8 7 4 7 1 2 3 7 3 8 5 8 2 1 9 8 6 8 8 16 8 9 6 9 15 19 19 16
5 0 8 5 4 3 1 3 5 7 6 3 7 9 11 12 6 8 6 12 4 5 4 4 3 3 5 7 10 4 8 6 6 11 3 2 3 1 8 9 14 17 21 20 11
7 1 9 6 1 1 2 6 6 7 1 6 7 11 10 7 8 7 8 6 9 6 9 2 2 6 10 6 5 5 5 10 9 18 10 8 5 4 12 11 16 21 22 17 7
5 3 6 5 2 3 4 6 5 5 5 3 4 4 5 6 6 8 9 5 11 6 4 2 1 5 6 3 3 3 4 6 5 4 14 12 6 10 8 20 20 22 21 15 5
3 3 2 3 1 2 5 5 5 6 10 4 9 10 4 7 10 7 11 8 7 9 10 2 5 10 9 6 6 11 11 11 6 9 14 17 23 26 19 20 22 21 18 14 3
3 2 1 4 2 8 3 5 9 5 3 7 4 6 6 7 18 19 14 13 12 7 8 2 9 12 13 15 14 15 19 18 16 14 10 13 24 22 16 17 20 17 18 13 1
2 3 2 4 7 6 4 3 7 6 6 10 6 13 15 15 18 25 22 16 14 7 11 6 5 11 14 15 16 21 20 20 20 18 17 18 30 20 21 18 18 18 17 11 4
1 0 1 4 3 3 3 3 9 16 10 10 14 17 18 20 17 20 21 21 18 7 9 6 4 6 11 11 12 15 23 24 20 17 17 20 26 21 19 17 18 16 14 15 7
Wind_Direction
6 4 358 356 351 348 344 342 340 338 337 338 336 333 329 330 324 325 281 266 293 307 301 294 290 216 178 214 191 154 226 234 228 208 225 257 268 250 333 283 292 208 183 123 130
4 0 355 351 347 344 340 338 336 335 335 333 331 331 328 335 322 298 51 35 1 334 310 257 228 210 207 204 199 202 220 226 226 210 209 231 243 270 308 281 280 261 54 1 158
359 355 350 345 342 339 337 336 334 332 330 330 329 326 323 333 304 225 150 347 359 354 273 240 221 214 224 205 201 213 230 230 230 224 227 255 267 266 251 259 240 273 307 321 314
350 349 347 346 344 341 339 338 339 340 330 321 320 319 331 344 356 97 261 323 334 358 315 192 198 203 226 220 211 239 232 236 245 227 226 248 266 254 251 251 279 282 288 288 276
349 348 350 352 350 348 348 347 347 345 332 320 314 324 354 339 260 316 333 334 336 345 343 278 224 212 223 224 225 235 240 235 243 241 235 253 259 266 261 262 277 281 279 281 285
348 348 349 350 349 350 352 351 349 349 348 341 355 272 354 325 295 312 324 344 7 17 353 277 240 240 264 238 222 231 241 246 245 235 239 243 258 261 261 267 263 271 277 278 276
343 342 343 342 344 348 351 350 345 342 337 345 23 178 226 246 321 313 307 312 320 332 334 256 258 236 237 246 251 256 253 236 232 235 236 228 265 252 254 263 268 268 266 270 270
339 340 340 341 344 346 349 348 345 339 347 10 128 180 262 302 316 321 313 297 274 299 252 257 226 286 233 292 257 231 235 241 229 214 232 199 252 252 254 247 249 254 258 260 261
336 336 335 335 338 343 346 344 339 334 26 23 79 15 294 318 314 323 308 280 296 228 227 162 142 218 212 225 247 219 232 228 238 221 221 210 246 248 238 233 247 256 259 261 268
336 336 335 336 340 344 350 347 7 57 34 41 91 262 263 323 316 316 300 276 266 283 117 149 194 220 217 209 219 229 237 251 239 218 217 228 246 250 247 274 265 265 268 271 272
338 336 336 337 342 352 1 17 7 338 29 282 294 274 278 296 304 298 316 273 243 242 250 222 227 223 225 228 245 264 262 247 240 211 222 226 243 244 244 256 263 267 268 268 269
338 336 334 336 342 21 22 80 97 345 308 278 266 250 269 270 290 327 15 345 285 253 172 235 251 261 248 239 237 241 247 242 268 254 255 250 261 257 251 255 261 264 268 270 275
338 336 332 334 356 46 71 128 162 345 260 294 252 267 308 310 303 324 327 297 271 263 253 262 273 283 231 239 241 233 238 239 250 284 283 273 273 265 255 255 257 256 261 264 264
339 332 328 337 103 347 217 179 307 175 264 303 332 85 336 319 258 330 249 269 274 284 268 262 253 220 234 230 231 237 220 229 238 243 249 256 279 268 260 258 251 258 256 257 259
340 330 322 312 298 244 129 309 324 174 299 329 332 321 330 346 311 336 355 207 276 282 258 240 287 221 225 234 217 243 228 251 263 251 262 253 277 261 250 263 263 260 253 256 257
346 334 318 227 226 282 327 321 155 232 263 340 329 334 346 337 335 304 329 283 297 284 258 258 252 262 248 243 221 243 210 220 232 245 247 244 236 278 261 263 259 262 267 265 281
346 345 42 164 353 327 339 136 252 232 349 325 325 330 331 318 330 331 324 320 0 315 285 257 243 238 244 257 246 232 210 184 210 217 237 233 210 240 166 289 293 283 298 288 285
348 346 31 337 321 323 345 181 232 21 282 304 313 315 294 352 336 327 317 307 201 321 292 318 315 215 214 219 242 214 209 202 203 210 235 215 224 243 260 279 285 288 298 304 293
352 358 56 346 348 340 321 99 209 237 269 309 319 302 296 299 324 324 315 290 314 75 334 306 278 304 277 254 205 190 200 225 301 223 226 198 246 271 274 272 312 347 335 328 312
346 345 22 353 339 353 48 265 250 233 306 298 284 252 287 316 323 329 307 287 328 359 208 299 295 217 303 334 200 261 282 190 211 220 213 213 236 242 195 82 23 360 349 330 326
3 187 4 338 345 41 42 277 285 280 298 284 284 282 285 308 300 313 273 293 276 334 263 296 256 271 268 178 255 326 234 229 251 237 286 273 170 323 130 59 6 357 350 348 339
342 277 356 9 353 32 288 312 304 290 270 285 272 267 269 297 291 290 259 267 333 332 309 284 291 284 284 285 294 280 289 255 241 221 241 286 277 145 97 21 356 349 348 354 354
345 295 356 6 12 334 315 292 271 282 288 294 281 279 305 292 294 256 269 269 296 270 279 359 249 304 298 175 106 231 231 266 267 274 251 235 243 149 303 339 338 342 346 351 355
334 329 357 46 41 355 323 294 308 285 280 265 294 284 262 273 263 278 272 294 273 277 271 263 243 248 260 302 314 296 288 276 259 256 245 238 265 270 297 319 326 335 342 349 347
8 23 2 314 340 312 290 278 295 304 331 304 265 247 293 283 299 278 275 277 270 263 241 250 242 235 252 268 272 270 273 271 253 244 254 261 257 270 294 308 315 314 324 338 275
359 346 360 285 294 293 283 260 291 317 320 297 259 282 287 281 277 287 290 274 259 245 237 203 253 225 247 257 261 270 261 255 254 252 247 253 264 272 282 286 298 304 314 331 240
343 182 248 278 290 294 280 304 307 317 290 241 284 288 288 289 298 289 277 274 252 223 199 194 212 220 254 259 272 272 253 245 245 240 239 241 255 264 266 270 282 298 302 309 243
Height
831 828 826 823 820 818 814 812 810 808 805 802 800 798 793 789 783 780 778 778 776 774 774 774 773 773 774 772 772 774 782 778 771 775 764 750 752 743 739 740 738 734 732 733 737
830 828 825 822 818 815 813 810 808 805 802 800 798 795 790 786 783 779 776 776 776 774 774 771 770 772 771 769 769 769 772 766 754 755 756 751 752 746 747 745 742 737 736 737 738
829 827 824 820 817 814 811 808 806 803 800 798 795 792 789 786 782 774 773 774 775 772 771 771 771 770 770 766 763 760 757 751 746 746 747 747 747 743 747 747 738 737 732 737 737
829 826 822 818 814 811 807 804 802 800 798 796 795 791 788 786 780 777 777 774 773 773 771 768 769 769 767 764 755 760 748 746 743 747 749 749 740 742 741 736 732 734 734 734 735
826 822 818 814 810 808 805 803 800 798 795 794 792 790 790 788 779 775 775 773 771 770 771 770 767 765 759 757 755 754 745 745 743 745 747 746 740 736 732 731 729 729 730 729 725
824 820 816 812 809 805 803 801 799 796 793 791 790 791 792 784 776 775 772 770 769 768 770 770 765 762 760 754 753 740 745 745 741 742 744 749 738 738 723 725 726 725 723 721 722
823 819 815 811 806 802 800 798 796 794 791 789 788 790 791 780 773 771 769 767 766 767 767 767 766 764 758 756 747 747 751 746 743 740 741 744 746 720 725 725 722 720 718 716 715
821 817 813 809 805 800 798 795 793 790 789 788 788 789 781 772 770 768 767 764 762 762 762 761 763 764 759 753 747 750 750 749 730 739 736 744 732 708 714 718 716 714 710 710 707
820 816 812 808 804 799 796 793 790 788 788 788 789 789 777 771 769 766 764 762 760 758 757 758 761 760 756 758 756 745 735 732 733 726 734 737 714 709 708 710 706 706 707 706 703
818 814 810 806 802 798 794 790 788 788 788 788 789 789 775 770 767 763 761 759 759 756 754 755 756 751 750 749 739 737 739 731 731 726 728 728 711 711 707 711 707 704 702 701 699
816 811 807 803 800 797 793 789 792 790 789 788 786 787 777 771 765 761 758 757 756 754 754 753 753 743 743 744 739 739 736 733 726 724 722 719 714 709 710 709 706 702 700 697 693
815 809 805 801 798 797 796 797 801 804 795 785 783 782 775 773 768 757 757 759 757 751 752 753 749 745 745 741 743 741 742 741 736 728 731 723 719 713 711 706 702 701 695 691 687
812 808 803 800 798 799 798 800 800 801 801 785 777 775 771 770 763 757 757 755 754 753 749 750 742 740 741 740 740 737 738 737 740 731 723 725 715 708 699 695 693 690 686 683 680
809 805 802 798 801 798 799 799 799 799 794 781 774 772 769 764 762 753 753 754 753 752 747 743 732 736 735 736 734 738 732 731 733 736 735 723 718 697 690 688 686 683 680 675 671
807 802 799 798 798 799 799 798 796 799 782 778 774 771 769 768 762 751 750 751 751 748 749 738 736 732 731 731 729 731 729 732 734 734 734 726 732 683 679 680 676 674 669 664 661
803 797 795 796 797 797 796 795 797 791 782 779 775 774 769 764 759 752 750 749 746 746 740 737 731 730 726 724 726 722 724 727 731 733 736 725 731 678 676 671 670 662 660 659 655
800 796 794 795 796 795 794 794 791 784 786 781 779 773 770 768 761 758 755 752 754 755 744 731 727 724 722 729 722 725 728 732 739 733 725 708 722 681 667 672 668 663 657 654 650
798 796 795 795 795 793 793 790 789 792 787 780 778 773 771 766 762 760 755 751 753 750 753 743 732 721 716 722 719 718 720 713 724 717 711 713 707 678 665 661 658 659 653 649 646
796 796 796 796 794 792 791 791 791 791 785 782 776 774 771 767 769 762 756 754 746 746 754 743 736 722 716 710 716 712 718 707 716 710 708 697 685 672 665 661 658 657 653 647 640
798 796 797 795 794 792 791 793 791 788 784 783 783 775 771 765 767 765 758 748 745 744 747 743 738 723 724 716 711 715 705 716 713 714 709 686 686 674 664 665 665 660 657 647 640
799 795 797 794 793 794 797 795 791 785 785 784 778 775 770 768 766 765 759 749 745 744 746 742 742 726 722 724 723 734 712 707 703 700 696 690 672 661 664 671 667 659 653 646 641
806 794 797 794 795 811 798 798 795 785 782 782 777 774 772 769 767 763 758 752 746 747 744 742 742 734 722 715 718 718 713 705 703 703 699 699 683 658 665 667 666 659 651 648 647
813 808 798 795 799 801 801 798 794 787 782 782 780 776 771 772 775 765 754 747 746 745 741 741 737 731 714 715 714 714 711 712 710 708 701 700 679 659 659 662 663 660 652 649 653
814 804 802 804 810 807 807 794 788 784 781 782 780 776 775 770 767 764 756 747 744 743 741 743 737 732 727 720 724 723 716 712 715 707 699 695 684 667 668 672 666 660 656 653 655
818 815 817 803 805 808 810 801 792 786 783 779 781 778 777 770 762 751 745 743 741 738 739 746 739 730 727 725 723 720 716 713 711 708 710 696 683 676 677 678 671 664 658 652 657
821 820 819 812 811 806 801 793 789 785 787 781 781 774 772 767 759 747 743 741 743 737 738 744 732 724 723 720 718 712 706 705 704 703 702 705 684 683 681 673 667 662 657 652 656
823 824 822 810 808 806 798 792 789 790 779 775 773 769 762 753 746 739 733 731 733 734 734 735 731 725 721 715 712 705 690 689 688 689 691 692 678 676 675 671 665 658 655 652 651